Regional Weather Roundup
Issued by NWS

Home | Current Version | Previous Version | Graphics & Text | Print | Product List | Glossary On
Versions: 1 2 3 4 5 6 7 8 9 10 11 12 13 14 15 16 17 18 19 20 21 22 23 24 25 26 27 28 29 30 31 32 33 34 35 36 37 38 39 40 41 42 43 44 45 46 47 48 49 50
000
ASUS45 KBOU 210407
RWRCO

WEATHER ROUNDUP FOR COLORADO
NATIONAL WEATHER SERVICE DENVER/BOULDER CO
1000 PM MDT WED AUG 20 2014

NOTE: "FAIR" INDICATES FEW OR NO CLOUDS BELOW 12000 FEET WITH NO
SIGNIFICANT WEATHER AND/OR OBSTRUCTIONS TO VISIBILITY.

COZ001>005-013-030-031-210500-
...NORTHWEST COLORADO...

CITY           SKY/WX    TMP DP  RH WIND       PRES   REMARKS
CRAIG          MOCLDY    57  52  83 S7        30.17R
HAYDEN         CLOUDY    54  48  82 SW9       30.19R
MEEKER         MOCLDY    59  49  69 SE7       30.17R
MOUNT WERNER   NOT AVBL
STEAMBOAT SPGS CLOUDY    55  49  80 NW10G18   30.20R
WALDEN         MOCLDY    50  45  81 NW10      30.24R
$$

COZ006>008-011-210500-
...WEST CENTRAL VALLEYS...

CITY           SKY/WX    TMP DP  RH WIND       PRES   REMARKS
GRAND JUNCTION CLOUDY    69  46  43 N15       30.05R
MONTROSE       PTCLDY    67  47  48 SW5       30.15R
EAGLE          MOCLDY    61  50  67 SW12G26   30.19R
RIFLE          CLOUDY    69  46  43 NW22G30   30.09R
DELTA          NOT AVBL
NUCLA          PTCLDY    61  52  72 S7        30.18R
$$

COZ017>023-064>068-210500-
...SOUTHWEST COLORADO...

CITY           SKY/WX    TMP DP  RH WIND       PRES   REMARKS
DURANGO        CLEAR     68  37  32 W13       30.15R
CORTEZ         CLEAR     64  44  48 W3        30.14R
PAGOSA SPRINGS CLEAR     58  39  48 NE6       30.22R
TELLURIDE      PTCLDY    54  45  71 W16       30.33R
WOLF CREEK PAS NOT AVBL
$$

COZ009-010-012-014-032>034-037-058>063-210500-
...CENTRAL COLORADO...

CITY           SKY/WX    TMP DP  RH WIND       PRES   REMARKS
ASPEN          PTCLDY    54  46  74 SW8       30.22R
BUENA VISTA    PTCLDY    63  38  38 W9        30.19S
COPPER MTN     PTCLDY    46  37  71 W6        30.49S
BERTHOUD PASS  FAIR      39  37  93 W10       30.53R
COTTONWOOD PAS PTCLDY    61  34  36 W16G23    30.33S
GUNNISON       MOCLDY    61  39  44 N7        30.24R
KREMMLING      CLEAR     54  46  76 CALM      30.21R
LEADVILLE      PTCLDY    51  40  65 N6        30.33R
MONARCH PASS   PTCLDY    45  37  76 W16       30.60R
SALIDA         PTCLDY    66  41  39 W10       30.23R
SUNLIGHT       CLOUDY    45  45 100 CALM      30.43R
WILKERSON PASS CLOUDY    52  37  58 CALM      30.46S
$$

COZ069>075-210500-
...SAN LUIS VALLEY/SANGRE DE CRISTO MOUNTAINS...

CITY           SKY/WX    TMP DP  RH WIND       PRES   REMARKS
ALAMOSA        PTCLDY    60  44  55 E7        30.18R
LA VETA PASS   NOT AVBL
SAGUACHE       PTCLDY    61  45  55 NW17      30.21R
$$

COZ035-036-038>040-210500-
...NORTHERN COLORADO FRONT RANGE...

CITY           SKY/WX    TMP DP  RH WIND       PRES   REMARKS
DENVER INTL AP CLOUDY    68  53  58 NW7       30.03R
DMNS CITY PARK   N/A     67  55  65 SW3G18    30.04R
AURORA         MOCLDY    70  53  55 W9        30.08R
FRONT RANGE AP NOT AVBL
ERIE MUNI ARPT MOCLDY    74  50  42 S8        30.03R
BOULDER MUN AP MOCLDY    72  50  46 CALM      30.03R
CENTENNIAL     LGT RAIN  67  53  61 NW22G28   30.06R
BROOMFIELD     TSTM      68  55  64 S15G23    30.06R
FORT COLLINS   PTCLDY    68  48  49 E7        29.99R
LONGMONT       PTCLDY    65  54  68 SW6       30.03R
$$

COZ041-046-047-076>085-087-088-210500-
...PIKES PEAK/PALMER DIVIDE AND SOUTHERN FOOTHILLS...

CITY           SKY/WX    TMP DP  RH WIND       PRES   REMARKS
COLO. SPRINGS  MOCLDY    68  52  56 N9        30.05R
A. F. ACADEMY  MOCLDY    63  53  70 N8        30.08R
ELLICOTT       RAIN      69  51  52 VRB5G29   30.03R
FALCON         MOCLDY    65  51  60 N6        30.11R
FORT CARSON    MOCLDY    67  55  64 NW6       30.01S
LIMON          MOCLDY    68  53  58 NW7       29.98R
MONUMENT HILL  CLOUDY    61  54  77 NW8       30.12R
TRINIDAD       CLEAR     71  47  42 W8        29.99R
$$

COZ042>045-048>051-090-091-210500-
...NORTHEAST COLORADO...

CITY           SKY/WX    TMP DP  RH WIND       PRES   REMARKS
GREELEY ARPT   PTCLDY    66  52  59 NE9       29.97R
AKRON          PTCLDY    70  57  63 N15       29.96R
BURLINGTON     CLEAR     71  57  61 NE8       29.88R
WRAY             N/A     72  58  62 CALM      29.85S
STERLING       PTCLDY    72  61  68 NW20G29   29.93R
HOLYOKE        NOT AVBL
FORT MORGAN    PTCLDY    69  53  56 N20G25    29.95R
$$

COZ086-089-092>099-210500-
...SOUTHEAST COLORADO...

CITY           SKY/WX    TMP DP  RH WIND       PRES   REMARKS
PUEBLO         MOCLDY    76  54  46 N12       29.90S
LA JUNTA       PTCLDY    80  51  36 SE6       29.85R
LAMAR          PTCLDY    82  48  30 S10       29.80R
SPRINGFIELD      N/A     78  56  46 S13       29.91R
$$


USA.gov is the U.S. government's official web portal to all federal, state and local government web resources and services.